Flag for China Weather past 2 weeks in Guiyang, Guizhou, China

Now
46 °F

Mostly cloudy.


Feels Like: 44 °F
Forecast: 38 / 55 °F
Wind: 6 mph from Northeast

Location: Guiyang Airport

Current Time: Feb 28, 2015 at 3:21:20 PM

Latest Report: Feb 28, 2015 at 3:00 PM


Visibility: N/A

Pressure: 30.09 "Hg

Humidity: 87%

Dew point: 43 °F

Location of GuiyangLocation

Historic Weather in Guiyang — Graph

°F

Guiyang temperature yesterday

Maximum temperature yesterday: 64 °F (at 3:00 PM)
Minimum temperature yesterday: 45 °F (at 12:00 AM)
Average temperature yesterday: 50 °F

Past Weeks' High & Low Weather Summary

 TemperatureHumidityPressure
High77 °F (Feb 20, 4:00 PM)100% (Feb 14, 6:00 AM)30.21 "Hg (Feb 14, 6:00 AM)
Low43 °F (Feb 23, 1:00 AM)39% (Feb 20, 4:00 PM)29.71 "Hg (Feb 24, 4:00 PM)
Average54 °F82%29.95 "Hg
* Reported Feb 13 2:00 PM — Feb 28 2:00 PM, Guiyang, Weather by CustomWeather, © 2015

Note: Actual official high and low records may vary slightly from our data, if they occured in-between our weather recording intervals... More about our weather records

Advertising

Guiyang weather history for previous 24 hours

 ConditionsComfort  
Time TempWeatherWind HumidityBarometerVisibility
2:00 PM
Sat, Feb 28
46 °FMostly cloudy.6 mph87%30.12 "HgN/A
1:00 PM46 °FMostly cloudy.6 mph87%30.12 "HgN/A
12:00 PM46 °FMostly cloudy.8 mph87%30.12 "HgN/A
11:00 AM48 °FMostly cloudy.8 mph82%30.12 "HgN/A
10:00 AM46 °FMore clouds than sun.8 mph87%30.12 "HgN/A
9:00 AM45 °FCloudy.6 mph93%30.09 "HgN/A
8:00 AM45 °FMostly cloudy.3 mph87%30.07 "HgN/A
7:00 AM45 °FMostly cloudy.3 mph87%30.04 "HgN/A
6:00 AM45 °FMostly cloudy.3 mph87%30.04 "HgN/A
5:00 AM45 °FMostly cloudy.6 mph87%30.01 "HgN/A
4:00 AM45 °FMostly cloudy.8 mph87%30.01 "HgN/A
3:00 AM45 °FMostly cloudy.6 mph87%30.01 "HgN/A
2:00 AM45 °FMostly cloudy.3 mph93%30.01 "HgN/A
1:00 AM45 °FMostly cloudy.6 mph93%30.01 "HgN/A
12:00 AM45 °FMostly cloudy.10 mph87%30.01 "HgN/A
11:00 PM
Fri, Feb 27
45 °FMostly cloudy.13 mph87%29.98 "HgN/A
10:00 PM45 °FMostly cloudy.10 mph93%29.95 "HgN/A
9:00 PM46 °FMostly cloudy.10 mph93%29.92 "HgN/A
8:00 PM46 °FMostly cloudy.10 mph93%29.86 "HgN/A
7:00 PM48 °FMostly cloudy.17 mph94%29.80 "HgN/A
6:00 PM52 °FSunny.15 mph88%29.74 "Hg10 mi
5:00 PM61 °FSunny.13 mph72%29.71 "Hg10 mi
4:00 PM64 °FSunny.13 mph68%29.71 "Hg10 mi
3:00 PM64 °FSunny.13 mph68%29.71 "Hg10 mi
Weather by CustomWeather, © 2015

See weather overviewHow to use our weather pages